When you browse on this site, cookies collect data to enhance your experience and personalize the content and advertising you see.
Visit our Privacy Policy to learn more. By continuing to use the site, you agree to this use of cookies and data.

Previsão horária em Lankaran

Hoje, 13 Agosto, Quinta-feira

Tempo Temperatura Precipitação Vento Pressão Humidade
00:00 +14°C° 0 mm 1 m/s 632 mmHg 65%
01:00 +14°C° 0 mm 1 m/s 632 mmHg 67%
02:00 +14°C° 0 mm 1 m/s 632 mmHg 69%
03:00 +13°C° 0 mm 1 m/s 631 mmHg 71%
04:00 +14°C° 0 mm 1 m/s 632 mmHg 69%
05:00 +14°C° 0 mm 1 m/s 632 mmHg 68%
06:00 +15°C° 0 mm 1 m/s 632 mmHg 67%
07:00 +18°C° 0 mm 1 m/s 633 mmHg 60%
08:00 +18°C° 0 mm 2 m/s 633 mmHg 53%
09:00 +20°C° 0 mm 2 m/s 634 mmHg 46%
10:00 +21°C° 0 mm 3 m/s 634 mmHg 44%
11:00 +22°C° 0 mm 3 m/s 634 mmHg 42%
12:00 +23°C° 0 mm 4 m/s 634 mmHg 39%
13:00 +23°C° 0 mm 4 m/s 633 mmHg 40%
14:00 +23°C° 0 mm 4 m/s 632 mmHg 40%
15:00 +23°C° 0 mm 4 m/s 632 mmHg 41%
16:00 +22°C° 0 mm 3 m/s 632 mmHg 44%
17:00 +20°C° 0 mm 3 m/s 631 mmHg 48%
18:00 +19°C° 0 mm 2 m/s 631 mmHg 51%
19:00 +18°C° 0 mm 2 m/s 631 mmHg 52%
20:00 +18°C° 0 mm 1 m/s 631 mmHg 54%
21:00 +16°C° 0 mm 1 m/s 631 mmHg 55%
22:00 +16°C° 0 mm 1 m/s 631 mmHg 53%
23:00 +16°C° 0 mm 1 m/s 631 mmHg 51%

Amanhã, 14 Agosto, Sexta-feira

Tempo Temperatura Precipitação Vento Pressão Humidade
00:00 +16°C° 0 mm 1 m/s 631 mmHg 50%
01:00 +15°C° 0 mm 1 m/s 631 mmHg 51%
02:00 +15°C° 0 mm 1 m/s 631 mmHg 51%
03:00 +15°C° 0 mm 1 m/s 630 mmHg 52%
04:00 +15°C° 0 mm 1 m/s 631 mmHg 51%
05:00 +15°C° 0 mm 1 m/s 631 mmHg 50%
06:00 +16°C° 0 mm 1 m/s 631 mmHg 50%
07:00 +18°C° 0 mm 2 m/s 632 mmHg 45%
08:00 +19°C° 0 mm 3 m/s 633 mmHg 41%
09:00 +21°C° 0 mm 3 m/s 633 mmHg 36%
10:00 +22°C° 0 mm 4 m/s 633 mmHg 36%
11:00 +22°C° 0 mm 5 m/s 633 mmHg 36%
12:00 +23°C° 0 mm 5 m/s 632 mmHg 36%
13:00 +22°C° 0 mm 5 m/s 632 mmHg 37%
14:00 +22°C° 0 mm 5 m/s 631 mmHg 39%
15:00 +22°C° 0 mm 4 m/s 631 mmHg 41%
16:00 +20°C° 0 mm 4 m/s 630 mmHg 46%
17:00 +19°C° 0 mm 3 m/s 630 mmHg 52%
18:00 +18°C° 0 mm 3 m/s 630 mmHg 57%
19:00 +17°C° 0 mm 2 m/s 630 mmHg 60%
20:00 +16°C° 0 mm 2 m/s 630 mmHg 63%
21:00 +14°C° 0 mm 1 m/s 630 mmHg 66%
22:00 +14°C° 0 mm 1 m/s 629 mmHg 62%
23:00 +14°C° 0 mm 1 m/s 629 mmHg 59%

Depois de amanhã, 15 Agosto, Sábado

Tempo Temperatura Precipitação Vento Pressão Humidade
00:00 +14°C° 0 mm 1 m/s 629 mmHg 56%
01:00 +14°C° 0 mm 1 m/s 629 mmHg 55%
02:00 +14°C° 0 mm 1 m/s 629 mmHg 55%
03:00 +13°C° 0 mm 1 m/s 629 mmHg 54%
04:00 +14°C° 0 mm 1 m/s 629 mmHg 53%
05:00 +14°C° 0 mm 1 m/s 630 mmHg 53%
06:00 +15°C° 0 mm 1 m/s 630 mmHg 53%
07:00 +16°C° 0 mm 2 m/s 631 mmHg 50%
08:00 +18°C° 0 mm 3 m/s 631 mmHg 48%
09:00 +19°C° 0 mm 4 m/s 632 mmHg 46%
10:00 +19°C° 0 mm 5 m/s 632 mmHg 49%
11:00 +19°C° 0 mm 5 m/s 632 mmHg 52%
12:00 +20°C° 0 mm 6 m/s 632 mmHg 55%
13:00 +17°C° 0.2 mm 6 m/s 632 mmHg 65%
14:00 +16°C° 0.2 mm 5 m/s 631 mmHg 74%
15:00 +14°C° 0.2 mm 5 m/s 631 mmHg 83%
16:00 +14°C° 0.6 mm 4 m/s 631 mmHg 85%
17:00 +14°C° 0.6 mm 4 m/s 631 mmHg 87%
18:00 +14°C° 0.6 mm 3 m/s 631 mmHg 90%
19:00 +13°C° 0.2 mm 3 m/s 632 mmHg 90%
20:00 +13°C° 0.2 mm 3 m/s 632 mmHg 91%
21:00 +13°C° 0.2 mm 3 m/s 633 mmHg 92%
22:00 +13°C° 0.2 mm 3 m/s 632 mmHg 92%
23:00 +14°C° 0.2 mm 2 m/s 632 mmHg 92%

16 Agosto, Domingo

Tempo Temperatura Precipitação Vento Pressão Humidade
00:00 +14°C° 0.2 mm 2 m/s 632 mmHg 93%
01:00 +14°C° 0.2 mm 2 m/s 632 mmHg 93%
02:00 +14°C° 0.2 mm 2 m/s 632 mmHg 93%
03:00 +14°C° 0.2 mm 2 m/s 632 mmHg 93%
04:00 +14°C° 0.7 mm 2 m/s 632 mmHg 93%
05:00 +14°C° 0.7 mm 2 m/s 632 mmHg 93%
06:00 +14°C° 0.7 mm 2 m/s 632 mmHg 93%
07:00 +14°C° 0.5 mm 2 m/s 632 mmHg 92%
08:00 +14°C° 0.5 mm 2 m/s 632 mmHg 91%
09:00 +14°C° 0.5 mm 2 m/s 632 mmHg 91%
10:00 +14°C° 0.2 mm 3 m/s 632 mmHg 88%
11:00 +14°C° 0.2 mm 3 m/s 632 mmHg 85%
12:00 +16°C° 0.2 mm 3 m/s 632 mmHg 82%
13:00 +16°C° 0 mm 3 m/s 632 mmHg 80%
14:00 +17°C° 0 mm 3 m/s 632 mmHg 78%
15:00 +17°C° 0 mm 3 m/s 632 mmHg 77%
16:00 +16°C° 0 mm 3 m/s 632 mmHg 79%
17:00 +16°C° 0 mm 2 m/s 631 mmHg 81%
18:00 +15°C° 0 mm 2 m/s 631 mmHg 84%
19:00 +15°C° 0 mm 2 m/s 631 mmHg 86%
20:00 +14°C° 0 mm 1 m/s 631 mmHg 89%
21:00 +13°C° 0 mm 1 m/s 632 mmHg 91%
22:00 +13°C° 0 mm 1 m/s 631 mmHg 91%
23:00 +13°C° 0 mm 1 m/s 631 mmHg 91%

17 Agosto, Segunda-feira

Tempo Temperatura Precipitação Vento Pressão Humidade
00:00 +13°C° 0 mm 1 m/s 631 mmHg 91%
01:00 +13°C° 0 mm 1 m/s 631 mmHg 91%
02:00 +13°C° 0 mm 1 m/s 631 mmHg 92%
03:00 +13°C° 0 mm 1 m/s 631 mmHg 93%
04:00 +13°C° 0 mm 2 m/s 631 mmHg 92%
05:00 +13°C° 0 mm 2 m/s 631 mmHg 91%
06:00 +13°C° 0 mm 2 m/s 632 mmHg 90%
07:00 +13°C° 0 mm 2 m/s 632 mmHg 86%
08:00 +13°C° 0 mm 3 m/s 632 mmHg 82%
09:00 +13°C° 0 mm 3 m/s 633 mmHg 79%
10:00 +14°C° 0.1 mm 3 m/s 633 mmHg 76%
11:00 +15°C° 0.1 mm 4 m/s 633 mmHg 74%
12:00 +15°C° 0.1 mm 4 m/s 633 mmHg 72%
13:00 +15°C° 0.8 mm 4 m/s 633 mmHg 77%
14:00 +14°C° 0.8 mm 4 m/s 633 mmHg 82%
15:00 +14°C° 0.8 mm 4 m/s 633 mmHg 87%
16:00 +13°C° 0.5 mm 4 m/s 633 mmHg 88%
17:00 +12°C° 0.5 mm 3 m/s 633 mmHg 90%
18:00 +12°C° 0.5 mm 3 m/s 632 mmHg 91%
19:00 +12°C° 0 mm 3 m/s 633 mmHg 91%
20:00 +11°C° 0 mm 3 m/s 633 mmHg 92%
21:00 +12°C° 0 mm 2 m/s 633 mmHg 92%
22:00 +12°C° 0 mm 2 m/s 633 mmHg 92%
23:00 +12°C° 0 mm 2 m/s 633 mmHg 92%

18 Agosto, Terça-feira

Tempo Temperatura Precipitação Vento Pressão Humidade
00:00 +12°C° 0 mm 2 m/s 633 mmHg 92%
01:00 +12°C° 0 mm 2 m/s 632 mmHg 91%
02:00 +12°C° 0 mm 2 m/s 632 mmHg 91%
03:00 +10°C° 0 mm 2 m/s 632 mmHg 90%
04:00 +12°C° 0 mm 2 m/s 632 mmHg 89%
05:00 +12°C° 0 mm 2 m/s 632 mmHg 89%
06:00 +12°C° 0 mm 2 m/s 632 mmHg 89%
07:00 +13°C° 0 mm 2 m/s 632 mmHg 83%
08:00 +13°C° 0 mm 3 m/s 633 mmHg 78%
09:00 +14°C° 0 mm 3 m/s 633 mmHg 73%
10:00 +14°C° 0 mm 3 m/s 633 mmHg 72%
11:00 +16°C° 0 mm 3 m/s 633 mmHg 70%
12:00 +16°C° 0 mm 3 m/s 632 mmHg 69%
13:00 +16°C° 0 mm 3 m/s 632 mmHg 70%
14:00 +16°C° 0 mm 3 m/s 632 mmHg 71%
15:00 +16°C° 0 mm 3 m/s 631 mmHg 71%
16:00 +16°C° 0 mm 3 m/s 631 mmHg 74%
17:00 +15°C° 0 mm 2 m/s 631 mmHg 78%
18:00 +15°C° 0 mm 2 m/s 631 mmHg 81%
19:00 +14°C° 0 mm 1 m/s 630 mmHg 83%
20:00 +13°C° 0 mm 1 m/s 630 mmHg 86%
21:00 +12°C° 0 mm 0 m/s 630 mmHg 88%
22:00 +13°C° 0 mm 1 m/s 630 mmHg 88%
23:00 +12°C° 0 mm 1 m/s 630 mmHg 87%
Mostrar mais